TimeCST,TemperatureF,Dew PointF,Humidity,Sea Level PressureIn,VisibilityMPH,Wind Direction,Wind SpeedMPH,Gust SpeedMPH,PrecipitationIn,Events,Conditions,WindDirDegrees,DateUTC
12:15 AM,23.0,19.4,86,30.35,10.0,Calm,Calm,-,N/A,,Clear,0,2013-01-10 06:15:00
12:35 AM,24.8,21.2,86,30.34,10.0,Calm,Calm,-,N/A,,Clear,0,2013-01-10 06:35:00
12:55 AM,24.8,21.2,86,30.34,10.0,Calm,Calm,-,N/A,,Clear,0,2013-01-10 06:55:00
2:35 AM,30.2,26.6,86,30.33,10.0,South,3.5,-,N/A,,Clear,180,2013-01-10 08:35:00
2:55 AM,30.2,26.6,86,30.32,10.0,Calm,Calm,-,N/A,,Clear,0,2013-01-10 08:55:00
3:15 AM,28.4,24.8,86,30.31,10.0,Calm,Calm,-,N/A,,Clear,0,2013-01-10 09:15:00
3:35 AM,28.4,24.8,86,30.31,10.0,Calm,Calm,-,N/A,,Clear,0,2013-01-10 09:35:00
3:55 AM,26.6,23.0,86,30.29,10.0,Calm,Calm,-,N/A,,Clear,0,2013-01-10 09:55:00
4:15 AM,26.6,23.0,86,30.28,10.0,Calm,Calm,-,N/A,,Clear,0,2013-01-10 10:15:00
4:35 AM,24.8,21.2,86,30.27,10.0,SSE,3.5,-,N/A,,Clear,150,2013-01-10 10:35:00
4:55 AM,28.4,24.8,86,30.26,10.0,South,5.8,-,N/A,,Clear,170,2013-01-10 10:55:00
5:15 AM,32.0,28.4,87,30.25,10.0,SSE,8.1,-,N/A,,Clear,160,2013-01-10 11:15:00
5:35 AM,33.8,28.4,81,30.24,10.0,SSE,5.8,-,N/A,,Clear,160,2013-01-10 11:35:00
5:55 AM,33.8,26.6,75,30.24,10.0,SSE,5.8,-,N/A,,Clear,150,2013-01-10 11:55:00
6:35 AM,35.6,26.6,70,30.22,10.0,SSE,5.8,-,N/A,,Clear,150,2013-01-10 12:35:00
6:55 AM,35.6,26.6,70,30.21,10.0,SSE,6.9,-,N/A,,Clear,150,2013-01-10 12:55:00
7:15 AM,35.6,26.6,70,30.21,10.0,SSE,6.9,-,N/A,,Clear,150,2013-01-10 13:15:00
7:35 AM,35.6,26.6,70,30.20,10.0,SSE,8.1,-,N/A,,Clear,150,2013-01-10 13:35:00
7:55 AM,37.4,26.6,65,30.20,10.0,SE,6.9,-,N/A,,Clear,140,2013-01-10 13:55:00
8:35 AM,37.4,24.8,60,30.18,10.0,SSE,4.6,-,N/A,,Clear,150,2013-01-10 14:35:00
8:55 AM,39.2,24.8,56,30.17,10.0,SE,8.1,-,N/A,,Clear,140,2013-01-10 14:55:00
9:15 AM,39.2,24.8,56,30.16,10.0,SE,11.5,-,N/A,,Clear,140,2013-01-10 15:15:00
9:35 AM,39.2,24.8,56,30.15,10.0,SE,10.4,16.1,N/A,,Mostly Cloudy,140,2013-01-10 15:35:00
9:55 AM,39.2,26.6,61,30.13,10.0,SE,10.4,-,N/A,,Overcast,130,2013-01-10 15:55:00
10:15 AM,39.2,26.6,61,30.11,10.0,SE,9.2,-,N/A,,Overcast,130,2013-01-10 16:15:00
10:35 AM,39.2,28.4,65,30.09,10.0,SE,9.2,-,N/A,,Mostly Cloudy,130,2013-01-10 16:35:00
10:55 AM,39.2,26.6,61,30.08,10.0,SE,9.2,-,N/A,,Mostly Cloudy,130,2013-01-10 16:55:00
11:15 AM,39.2,26.6,61,30.06,10.0,SE,11.5,-,N/A,,Mostly Cloudy,130,2013-01-10 17:15:00
11:35 AM,39.2,26.6,61,30.04,10.0,ESE,12.7,-,N/A,,Overcast,120,2013-01-10 17:35:00
11:55 AM,39.2,28.4,65,30.00,10.0,SE,11.5,-,N/A,,Overcast,130,2013-01-10 17:55:00
12:15 PM,39.2,28.4,65,29.97,10.0,ESE,8.1,-,N/A,,Overcast,110,2013-01-10 18:15:00
12:35 PM,39.2,28.4,65,29.97,10.0,ESE,11.5,-,N/A,,Overcast,120,2013-01-10 18:35:00
12:55 PM,37.4,28.4,70,29.95,10.0,ESE,9.2,-,N/A,,Overcast,120,2013-01-10 18:55:00
1:15 PM,39.2,28.4,65,29.92,10.0,ESE,9.2,-,N/A,,Overcast,110,2013-01-10 19:15:00
1:35 PM,37.4,28.4,70,29.92,10.0,ESE,10.4,-,N/A,,Overcast,110,2013-01-10 19:35:00
1:55 PM,37.4,30.2,75,29.91,7.0,ESE,8.1,-,N/A,,Overcast,120,2013-01-10 19:55:00
2:15 PM,37.4,30.2,75,29.91,10.0,East,4.6,-,N/A,,Overcast,100,2013-01-10 20:15:00
2:35 PM,35.6,30.2,81,29.91,10.0,ESE,3.5,-,N/A,,Overcast,120,2013-01-10 20:35:00
2:55 PM,35.6,32.0,87,29.90,10.0,ESE,4.6,-,N/A,,Overcast,120,2013-01-10 20:55:00
3:15 PM,37.4,32.0,81,29.90,10.0,ESE,6.9,-,N/A,,Overcast,120,2013-01-10 21:15:00
3:35 PM,35.6,32.0,87,29.89,3.0,SE,4.6,-,N/A,,Overcast,140,2013-01-10 21:35:00
3:55 PM,35.6,33.8,93,29.88,3.0,SE,3.5,-,N/A,,Overcast,140,2013-01-10 21:55:00
4:15 PM,35.6,33.8,93,29.88,3.0,SE,5.8,-,N/A,,Overcast,140,2013-01-10 22:15:00
4:35 PM,35.6,33.8,93,29.86,7.0,SE,5.8,-,N/A,,Overcast,130,2013-01-10 22:35:00
4:55 PM,35.6,33.8,93,29.84,7.0,SE,5.8,-,N/A,,Overcast,130,2013-01-10 22:55:00
5:15 PM,37.4,33.8,87,29.85,10.0,SE,4.6,-,N/A,,Overcast,140,2013-01-10 23:15:00
5:35 PM,35.6,33.8,93,29.85,10.0,SSE,8.1,-,N/A,,Overcast,150,2013-01-10 23:35:00
5:55 PM,37.4,33.8,87,29.83,7.0,SSE,5.8,-,N/A,,Overcast,150,2013-01-10 23:55:00
6:15 PM,37.4,33.8,87,29.82,2.5,SSE,8.1,-,N/A,,Overcast,150,2013-01-11 00:15:00
6:35 PM,37.4,33.8,87,29.82,2.0,SSE,8.1,-,N/A,,Overcast,160,2013-01-11 00:35:00
6:55 PM,37.4,35.6,93,29.81,1.5,SSE,5.8,-,N/A,,Overcast,150,2013-01-11 00:55:00
7:15 PM,37.4,33.8,87,29.79,1.5,SSE,6.9,-,N/A,,Overcast,160,2013-01-11 01:15:00
7:35 PM,35.6,33.8,93,29.77,1.5,SSE,3.5,-,N/A,,Overcast,150,2013-01-11 01:35:00
7:55 PM,35.6,33.8,93,29.76,1.0,SSE,4.6,-,N/A,,Overcast,160,2013-01-11 01:55:00
8:15 PM,35.6,33.8,93,29.77,0.8,SSE,9.2,-,N/A,,Overcast,160,2013-01-11 02:15:00
8:35 PM,35.6,33.8,93,29.77,0.8,South,6.9,-,N/A,,Overcast,170,2013-01-11 02:35:00
8:55 PM,35.6,33.8,93,29.75,0.5,South,6.9,-,N/A,,Overcast,170,2013-01-11 02:55:00
9:15 PM,35.6,33.8,93,29.74,0.5,South,3.5,-,N/A,,Overcast,180,2013-01-11 03:15:00
9:35 PM,35.6,33.8,93,29.75,0.5,South,4.6,-,N/A,,Overcast,180,2013-01-11 03:35:00
9:55 PM,35.6,33.8,93,29.75,0.2,South,3.5,-,N/A,,Overcast,190,2013-01-11 03:55:00
10:15 PM,37.4,35.6,93,29.73,0.8,Calm,Calm,-,N/A,,Overcast,0,2013-01-11 04:15:00
10:35 PM,35.6,33.8,93,29.73,1.0,Calm,Calm,-,N/A,,Overcast,0,2013-01-11 04:35:00
10:55 PM,35.6,35.6,100,29.73,1.0,Calm,Calm,-,N/A,,Overcast,0,2013-01-11 04:55:00
11:15 PM,35.6,33.8,93,29.72,0.8,Calm,Calm,-,N/A,,Overcast,0,2013-01-11 05:15:00
11:55 PM,35.6,33.8,93,29.70,0.2,Calm,Calm,-,N/A,,Overcast,0,2013-01-11 05:55:00